Date String (YYYY-MM-DD hh:mm:ss) UTC,Instrument flags,absolute air pressure of the measurement (hPa),sample flow rate (lpm),inlet stack bypass flow (lpm),air temperature of the measurement (°C),ambient temperature measured by the external sensor (°C),aerosol sample conditioner tube jacket temperature (°C),OPC LED temperature (°C),internal box temperature (°C),relative humidity of the measurement (%),span deviation,mass concentration of particles derived from Lorenz-Mie calculation of OPC scattering (μg/m³),mass concentration of particles derived from Lorenz-Mie calculation of OPC scattering (μg/m³),mass concentration of particles derived from Lorenz-Mie calculation of OPC scattering (μg/m³)
DateTimeUTC,F1_M11,P_M11,Q1_M11,Q2_M11,T1_M11,T2_M11,T3_M11,T4_M11,T5_M11,U1_M11,ZSPAN_M11,X2_M11,X0_M11,X1_M11
2024-05-14 13:00:00,SystemResetWarning,0825.6,4.99,000.00,024.9,023.0,000.0,033.5,026.2,019.7,0000.0,0002.14,0005.05,0001.70
2024-05-14 13:01:00,SystemResetWarning,0825.6,5.00,000.00,024.9,023.3,000.0,033.4,026.3,019.5,0000.0,0002.18,0005.11,0001.71
2024-05-14 13:02:00,SystemResetWarning,0825.6,5.02,000.00,024.9,023.5,000.0,033.3,026.5,019.3,0000.0,0002.22,0005.23,0001.73
2024-05-14 13:03:00,SystemResetWarning,0825.6,4.99,000.00,024.9,023.8,000.0,033.3,026.6,019.2,0000.0,0002.24,0004.99,0001.74
2024-05-14 13:04:00,SystemResetWarning,0825.6,4.99,000.00,025.0,023.9,000.0,033.3,026.6,019.1,0000.0,0002.19,0004.85,0001.73
2024-05-14 13:05:00,SystemResetWarning,0825.6,4.99,000.00,025.0,024.1,000.0,033.3,026.7,019.3,0000.0,0002.12,0004.72,0001.72
2024-05-14 13:06:00,SystemResetWarning,0825.6,5.00,000.00,025.0,024.2,000.0,033.3,026.8,019.4,0000.0,0002.09,0004.68,0001.71
2024-05-14 13:07:00,SystemResetWarning,0825.6,5.01,000.00,025.1,024.3,000.0,033.3,026.8,019.5,0000.0,0002.13,0004.86,0001.72
2024-05-14 13:08:00,SystemResetWarning,0825.6,5.00,000.00,025.1,024.4,000.0,033.3,026.9,019.7,0000.0,0002.15,0005.08,0001.72
2024-05-14 13:09:00,SystemResetWarning,0825.6,4.99,000.00,025.2,024.5,000.0,033.3,026.9,019.8,0000.0,0002.16,0006.27,0001.72
2024-05-14 13:10:00,SystemResetWarning,0825.6,5.00,000.00,025.2,024.6,000.0,033.3,026.9,020.0,0000.0,0002.20,0005.00,0001.72
2024-05-14 13:11:00,SystemResetWarning,0825.6,5.00,000.00,025.2,024.6,000.0,033.3,027.0,019.7,0000.0,0002.23,0005.07,0001.72
2024-05-14 13:12:00,SystemResetWarning,0825.6,5.00,000.00,025.3,024.7,000.0,033.4,027.0,020.0,0000.0,0002.25,0005.35,0001.71
2024-05-14 13:13:00,SystemResetWarning,0825.6,5.00,000.00,025.3,024.8,000.0,033.4,027.0,019.7,0000.0,0002.23,0005.59,0001.71
2024-05-14 13:14:00,SystemResetWarning,0825.6,5.00,000.00,025.3,024.8,000.0,033.4,027.1,019.8,0000.0,0002.25,0005.74,0001.70
2024-05-14 13:15:00,SystemResetWarning,0825.5,5.00,000.00,025.4,024.8,000.0,033.4,027.1,019.9,0000.0,0002.26,0007.26,0001.70
2024-05-14 13:16:00,SystemResetWarning,0825.4,5.00,000.00,025.4,024.9,000.0,033.5,027.2,019.5,0000.0,0002.29,0007.40,0001.71
2024-05-14 13:17:00,SystemResetWarning,0825.4,5.00,000.00,025.4,024.9,000.0,033.5,027.2,018.9,0000.0,0002.32,0007.57,0001.72
2024-05-14 13:18:00,SystemResetWarning,0825.4,5.01,000.00,025.5,025.0,000.0,033.5,027.3,018.7,0000.0,0002.33,0007.59,0001.73
2024-05-14 13:19:00,SystemResetWarning,0825.5,5.01,000.00,025.5,025.0,000.0,033.5,027.3,018.7,0000.0,0002.30,0007.52,0001.74
2024-05-14 13:20:00,SystemResetWarning,0825.5,5.00,000.00,025.5,025.0,000.0,033.6,027.3,018.9,0000.0,0002.30,0006.21,0001.75
2024-05-14 13:21:00,SystemResetWarning,0825.6,5.00,000.00,025.6,025.0,000.0,033.6,027.4,019.1,0000.0,0002.28,0006.16,0001.76
2024-05-14 13:22:00,SystemResetWarning,0825.6,4.99,000.00,025.6,025.1,000.0,033.6,027.4,018.9,0000.0,0002.28,0007.00,0001.77
2024-05-14 13:23:00,SystemResetWarning,0825.6,4.99,000.00,025.6,025.1,000.0,033.6,027.4,018.8,0000.0,0002.30,0007.53,0001.79
2024-05-14 13:24:00,SystemResetWarning,0825.6,5.01,000.00,025.6,025.1,000.0,033.6,027.4,019.0,0000.0,0002.37,0007.74,0001.79
2024-05-14 13:25:00,SystemResetWarning,0825.7,5.01,000.00,025.6,024.9,000.0,033.7,027.2,019.2,0000.0,0002.37,0007.72,0001.80
2024-05-14 13:26:00,SystemResetWarning,0825.6,4.98,000.00,025.4,022.8,000.0,033.8,026.2,019.8,0000.0,0002.35,0006.54,0001.81
2024-05-14 13:27:00,SystemResetWarning,0825.6,5.03,000.00,025.0,022.1,000.0,033.8,025.7,020.5,0000.0,0002.34,0006.24,0001.82
2024-05-14 13:28:00,SystemResetWarning,0825.6,4.97,000.00,024.8,022.4,000.0,033.6,025.7,020.9,0000.0,0002.33,0005.91,0001.82
2024-05-14 13:29:00,SystemResetWarning,0825.6,5.00,000.00,024.8,022.7,000.0,033.5,026.0,020.7,0000.0,0002.29,0005.75,0001.79
2024-05-14 13:30:00,SystemResetWarning,0825.7,5.01,000.00,024.8,023.0,000.0,033.4,026.2,020.5,0000.0,0002.27,0005.71,0001.78
2024-05-14 13:31:00,SystemResetWarning,0825.7,5.01,000.00,024.8,023.3,000.0,033.3,026.4,020.5,0000.0,0002.27,0005.61,0001.77
2024-05-14 13:32:00,SystemResetWarning,0825.7,4.99,000.00,024.9,023.5,000.0,033.3,026.5,020.3,0000.0,0002.27,0005.57,0001.76
2024-05-14 13:33:00,SystemResetWarning,0825.7,5.00,000.00,024.9,023.8,000.0,033.3,026.6,020.9,0000.0,0002.31,0005.04,0001.77
2024-05-14 13:34:00,SystemResetWarning,0825.6,5.00,000.00,025.0,023.9,000.0,033.2,026.6,019.8,0000.0,0002.28,0005.72,0001.76
2024-05-14 13:35:00,SystemResetWarning,0825.6,5.00,000.00,025.0,024.1,000.0,033.2,026.7,020.0,0000.0,0002.21,0004.96,0001.76
2024-05-14 13:36:00,SystemResetWarning,0825.6,5.01,000.00,025.0,024.2,000.0,033.2,026.8,019.9,0000.0,0002.20,0004.92,0001.75
2024-05-14 13:37:00,SystemResetWarning,0825.6,5.01,000.00,025.1,024.3,000.0,033.2,026.8,020.1,0000.0,0002.22,0004.96,0001.76
2024-05-14 13:38:00,SystemResetWarning,0825.6,4.98,000.00,025.1,024.4,000.0,033.3,026.8,019.9,0000.0,0002.22,0005.04,0001.76
2024-05-14 13:39:00,SystemResetWarning,0825.6,5.00,000.00,025.2,024.5,000.0,033.3,026.9,020.4,0000.0,0002.27,0005.18,0001.77
2024-05-14 13:40:00,SystemResetWarning,0825.6,5.00,000.00,025.2,024.6,000.0,033.3,027.0,020.5,0000.0,0002.30,0005.27,0001.78
2024-05-14 13:41:00,SystemResetWarning,0825.6,5.01,000.00,025.2,024.7,000.0,033.3,027.0,020.6,0000.0,0002.30,0005.74,0001.78
2024-05-14 13:42:00,SystemResetWarning,0825.6,5.00,000.00,025.3,024.7,000.0,033.3,027.1,020.2,0000.0,0002.33,0006.33,0001.79
2024-05-14 13:43:00,SystemResetWarning,0825.7,5.00,000.00,025.3,024.8,000.0,033.4,027.1,020.0,0000.0,0002.34,0006.34,0001.79
2024-05-14 13:44:00,SystemResetWarning,0825.6,5.00,000.00,025.3,024.8,000.0,033.4,027.1,020.0,0000.0,0002.29,0006.06,0001.79
2024-05-14 13:45:00,SystemResetWarning,0825.7,4.99,000.00,025.4,024.9,000.0,033.4,027.1,020.2,0000.0,0002.29,0004.47,0001.79
2024-05-14 13:46:00,SystemResetWarning,0825.7,4.99,000.00,025.4,024.9,000.0,033.4,027.2,020.0,0000.0,0002.31,0004.53,0001.79
2024-05-14 13:47:00,SystemResetWarning,0825.6,5.00,000.00,025.5,025.0,000.0,033.5,027.2,020.1,0000.0,0002.30,0004.52,0001.79
2024-05-14 13:48:00,SystemResetWarning,0825.7,5.01,000.00,025.5,025.0,000.0,033.5,027.3,020.4,0000.0,0002.30,0004.53,0001.78
2024-05-14 13:49:00,SystemResetWarning,0825.7,5.00,000.00,025.5,024.8,000.0,033.6,027.1,020.0,0000.0,0002.33,0004.56,0001.78
2024-05-14 13:50:00,SystemResetWarning,0825.6,4.99,000.00,025.2,022.8,000.0,033.6,026.2,020.1,0000.0,0002.29,0004.40,0001.78
2024-05-14 13:51:00,SystemResetWarning,0825.5,5.02,000.00,024.9,022.0,000.0,033.6,025.7,020.5,0000.0,0002.26,0004.31,0001.78
2024-05-14 13:52:00,SystemResetWarning,0825.5,4.99,000.00,024.8,022.3,000.0,033.5,025.7,020.9,0000.0,0002.31,0004.08,0001.79
2024-05-14 13:53:00,SystemResetWarning,0825.6,4.99,000.00,024.7,022.6,000.0,033.4,026.0,021.2,0000.0,0002.28,0003.37,0001.80
2024-05-14 13:54:00,SystemResetWarning,0825.7,5.01,000.00,024.8,023.0,000.0,033.3,026.2,021.3,0000.0,0002.28,0003.34,0001.81
2024-05-14 13:55:00,SystemResetWarning,0825.7,5.00,000.00,024.8,023.3,000.0,033.2,026.3,021.1,0000.0,0002.27,0003.28,0001.82
2024-05-14 13:56:00,SystemResetWarning,0825.8,5.00,000.00,024.8,023.5,000.0,033.2,026.4,021.2,0000.0,0002.27,0003.22,0001.83
2024-05-14 13:57:00,SystemResetWarning,0825.8,5.00,000.00,024.8,023.7,000.0,033.2,026.5,021.5,0000.0,0002.24,0003.13,0001.84
2024-05-14 13:58:00,SystemResetWarning,0825.9,5.00,000.00,024.9,023.9,000.0,033.2,026.6,021.8,0000.0,0002.25,0003.12,0001.85
2024-05-14 13:59:00,SystemResetWarning,0825.9,5.00,000.00,024.9,024.0,000.0,033.2,026.6,021.7,0000.0,0002.29,0003.18,0001.87
